User: anonymous   Login
Location: Nitra
(0.0000°N, 18.0833°E)
Time: 22:26:04
(UTC+02:00)
Language:

Cosmos 1076 Rocket - Orbit

View from above orbital plane
View from above orbital plane
View from above satellite
View from above satellite

Ground track
Ground track

The orbit data is extracted from the following two-line orbital elements,

1 11267U 79011B   21104.13772234  .00000101  00000-0  81319-5 0  9991
2 11267  82.5270 350.4419 0015306 263.0972  96.8505 14.89014553262130
Epoch (UTC): 14 April 2021 03:18:19
Eccentricity: 0.0015306
inclination: 82.5270°
perigee height: 590 km
apogee height: 612 km
right ascension of ascending node: 350.4419°
argument of perigee: 263.0972°
revolutions per day: 14.89014553
mean anomaly at epoch: 96.8505°
orbit number at epoch: 26213

The dashed part of the orbit path shows where the satellite is in the earth's shadow,  

DLR